FW9748 Weather Reports


Display with metric or nautical units.
time (UTC)temp
F
wind
direction
speed
MPH
gust
MPH
rain 1hr
in
rain 24hr
in
rain mn
in
humidity
%
barometer
mb
20260505052804 72 260 4.0 6.0 0.00 0.00 0.00 60 1002.4
20260505052305 72 289 4.0 7.0 0.00 0.00 0.00 60 1002.7
20260505051804 72 243 4.0 6.0 0.00 0.00 0.00 60 1002.7
20260505050935 72 214 7.0 10.0 0.00 0.00 0.00 59 1002.4
20260505050304 72 284 3.0 10.0 0.00 0.00 0.00 59 1002.0
20260505041304 73 128 4.0 8.0 0.00 0.00 0.00 58 1002.0
20260505040804 73 269 5.0 6.0 0.00 0.00 0.00 58 1002.0
20260505040304 73 225 5.0 6.0 0.00 0.00 0.00 59 1002.0
20260505035804 73 235 5.0 6.0 0.00 0.00 0.00 58 1002.4
20260505034804 73 296 3.0 7.0 0.00 0.00 0.00 58 1002.4
20260505034304 73 246 3.0 6.0 0.00 0.00 0.00 58 1002.4
20260505033804 73 235 4.0 5.0 0.00 0.00 0.00 58 1002.4
20260505033304 74 246 5.0 6.0 0.00 0.00 0.00 58 1002.4
20260505032803 74 246 5.0 7.0 0.00 0.00 0.00 58 1002.7
20260505032305 74 237 3.0 6.0 0.00 0.00 0.00 58 1002.4
20260505031804 74 239 5.0 6.0 0.00 0.00 0.00 57 1002.4
20260505031304 74 180 3.0 5.0 0.00 0.00 0.00 58 1002.4
20260505030804 74 265 2.0 5.0 0.00 0.00 0.00 58 1002.4
20260505030303 74 231 4.0 6.0 0.00 0.00 0.00 58 1002.4
20260505025804 74 245 3.0 3.0 0.00 0.00 0.00 58 1002.4
20260505025305 74 241 2.0 5.0 0.00 0.00 0.00 58 1002.4
20260505024304 74 251 3.0 3.0 0.00 0.00 0.00 58 1002.0
20260505023804 74 240 2.0 3.0 0.00 0.00 0.00 58 1002.0
20260505022804 74 215 2.0 5.0 0.00 0.00 0.00 58 1001.7
20260505022304 74 231 2.0 3.0 0.00 0.00 0.00 58 1001.7
20260505021804 74 250 2.0 5.0 0.00 0.00 0.00 58 1001.7
20260505021303 74 225 3.0 3.0 0.00 0.00 0.00 57 1001.7
20260505020804 74 235 2.0 3.0 0.00 0.00 0.00 57 1001.4
20260505020304 74 229 2.0 3.0 0.00 0.00 0.00 57 1001.4
20260505015804 74 236 3.0 3.0 0.00 0.00 0.00 57 1001.0
20260505015304 74 264 2.0 3.0 0.00 0.00 0.00 57 1001.0
20260505014804 75 256 3.0 3.0 0.00 0.00 0.00 56 1001.0
20260505014303 75 243 3.0 3.0 0.00 0.00 0.00 56 1001.0
20260505013303 76 213 3.0 5.0 0.00 0.00 0.00 55 1001.0
20260505012804 76 245 3.0 5.0 0.00 0.00 0.00 54 1000.7
20260505011803 76 230 3.0 3.0 0.00 0.00 0.00 54 1000.3
20260505010304 77 229 4.0 5.0 0.00 0.00 0.00 52 1000.7
20260505005304 77 288 3.0 5.0 0.00 0.00 0.00 51 1000.3
20260505003804 78 248 3.0 5.0 0.00 0.00 0.00 52 1000.3
20260505003306 78 287 4.0 6.0 0.00 0.00 0.00 51 1000.3
20260505002806 78 248 3.0 3.0 0.00 0.00 0.00 52 1000.3
20260505002305 78 233 3.0 3.0 0.00 0.00 0.00 53 1000.0
20260505001306 79 218 3.0 6.0 0.00 0.00 0.00 51 1000.0
20260505000806 79 233 3.0 3.0 0.00 0.00 0.00 51 1000.0
20260505000305 80 240 3.0 5.0 0.00 0.00 0.00 50 1000.0
20260504235805 80 279 3.0 5.0 0.00 0.00 0.00 50 1000.3
20260504235306 80 249 4.0 5.0 0.00 0.00 0.00 49 1000.3
20260504234806 80 275 3.0 5.0 0.00 0.00 0.00 49 1000.3
20260504233805 80 290 2.0 5.0 0.00 0.00 0.00 50 1000.7
20260504233306 80 285 3.0 6.0 0.00 0.00 0.00 49 1000.3
20260504232306 80 258 3.0 5.0 0.00 0.00 0.00 48 1000.7
20260504231806 81 246 4.0 6.0 0.00 0.00 0.00 47 1000.7
20260504231306 80 236 2.0 5.0 0.00 0.00 0.00 47 1000.7
20260504230806 81 229 4.0 6.0 0.00 0.00 0.00 47 1000.7
20260504230305 81 312 2.0 3.0 0.00 0.00 0.00 46 1000.7
20260504225805 81 264 3.0 5.0 0.00 0.00 0.00 46 1000.3
20260504224806 80 238 4.0 6.0 0.00 0.00 0.00 46 1000.3
20260504224306 80 45 3.0 5.0 0.00 0.00 0.00 46 1000.7
20260504223805 81 305 3.0 5.0 0.00 0.00 0.00 45 1000.7
20260504222806 81 224 5.0 9.0 0.00 0.00 0.00 46 1000.7
20260504222305 81 227 5.0 7.0 0.00 0.00 0.00 46 1000.7
20260504221805 81 264 7.0 9.0 0.00 0.00 0.00 45 1000.7
20260504221306 81 233 6.0 7.0 0.00 0.00 0.00 46 1000.7
20260504220305 81 224 3.0 10.0 0.00 0.00 0.00 49 1000.3
20260504215805 81 243 6.0 7.0 0.00 0.00 0.00 48 1000.7
20260504214806 81 228 3.0 7.0 0.00 0.00 0.00 49 1000.7
20260504214306 81 258 7.0 9.0 0.00 0.00 0.00 47 1000.7
20260504213805 81 244 7.0 8.0 0.00 0.00 0.00 47 1000.7
20260504213305 81 246 5.0 8.0 0.00 0.00 0.00 48 1000.7
20260504212805 81 316 3.0 6.0 0.00 0.00 0.00 49 1000.7
20260504212306 81 247 5.0 7.0 0.00 0.00 0.00 48 1000.7
20260504211805 81 293 6.0 8.0 0.00 0.00 0.00 48 1001.0
20260504211305 81 244 5.0 8.0 0.00 0.00 0.00 48 1001.0
20260504210806 81 245 4.0 6.0 0.00 0.00 0.00 48 1000.7
20260504210305 81 258 4.0 7.0 0.00 0.00 0.00 48 1000.7
20260504205305 80 292 5.0 8.0 0.00 0.00 0.00 49 1000.7
20260504204805 80 241 4.0 10.0 0.00 0.00 0.00 51 1000.7
20260504204306 80 227 5.0 9.0 0.00 0.00 0.00 51 1001.0
20260504203305 79 252 5.0 7.0 0.00 0.00 0.00 53 1001.4
20260504202805 79 269 4.0 8.0 0.00 0.00 0.00 53 1001.4
20260504202306 79 228 6.0 7.0 0.00 0.00 0.00 54 1001.4
20260504201305 78 249 4.0 9.0 0.00 0.00 0.00 54 1001.4
20260504200806 78 307 5.0 5.0 0.00 0.00 0.00 54 1001.7
20260504200305 78 113 2.0 6.0 0.00 0.00 0.00 56 1001.7
20260504195806 78 259 5.0 7.0 0.00 0.00 0.00 56 1001.7
20260504195305 77 289 5.0 6.0 0.00 0.00 0.00 57 1001.7
20260504194805 76 295 3.0 8.0 0.00 0.00 0.00 58 1002.4
20260504194306 75 237 6.0 8.0 0.00 0.00 0.00 57 1002.0
20260504193805 74 258 3.0 3.0 0.00 0.00 0.00 60 1001.7
20260504193305 74 237 3.0 5.0 0.00 0.00 0.00 62 1002.4
20260504192806 73 262 2.0 5.0 0.00 0.00 0.00 63 1002.4
20260504192305 73 313 2.0 5.0 0.00 0.00 0.00 63 1002.4
20260504191806 73 241 3.0 3.0 0.00 0.00 0.00 63 1002.4
20260504191305 73 254 2.0 3.0 0.00 0.00 0.00 64 1002.4
20260504190306 70 231 3.0 6.0 0.00 0.00 0.00 66 1002.4
20260504185805 69 241 3.0 5.0 0.00 0.00 0.00 67 1002.4
20260504185306 68 220 4.0 6.0 0.00 0.00 0.00 69 1002.0
20260504184805 67 168 4.0 6.0 0.00 0.00 0.00 69 1002.0
20260504184305 67 186 4.0 7.0 0.00 0.00 0.00 71 1002.0
20260504183805 67 195 3.0 6.0 0.00 0.00 0.00 70 1002.4
20260504183305 67 247 3.0 6.0 0.00 0.00 0.00 69 1003.0
20260504182305 68 181 5.0 6.0 0.00 0.00 0.00 64 1003.0
20260504181805 68 201 2.0 3.0 0.00 0.00 0.00 64 1003.7
20260504181305 68 178 2.0 5.0 0.00 0.00 0.00 64 1003.7
20260504180805 69 204 3.0 5.0 0.00 0.00 0.00 63 1003.7
20260504180305 69 250 3.0 5.0 0.00 0.00 0.00 63 1003.0
20260504175805 69 240 4.0 5.0 0.00 0.00 0.00 64 1003.4
20260504175305 69 233 3.0 6.0 0.00 0.00 0.00 64 1003.4
20260504174806 69 249 3.0 6.0 0.00 0.00 0.00 63 1003.4
20260504174305 69 244 2.0 2.0 0.00 0.00 0.00 63 1003.7
20260504173805 69 263 5.0 5.0 0.00 0.00 0.00 62 1003.4
20260504173305 69 172 3.0 6.0 0.00 0.00 0.00 62 1003.4
20260504172805 69 233 5.0 6.0 0.00 0.00 0.00 63 1003.7
20260504172305 69 232 2.0 3.0 0.00 0.00 0.00 63 1003.7
20260504171806 69 234 2.0 3.0 0.00 0.00 0.00 63 1004.1
20260504171305 68 206 3.0 3.0 0.00 0.00 0.00 65 1003.7
20260504170805 67 212 2.0 3.0 0.00 0.00 0.00 66 1004.1
20260504170305 67 252 3.0 5.0 0.00 0.00 0.00 67 1004.1
20260504160305 65 276 4.0 7.0 0.00 0.00 0.00 68 1004.7
20260504150805 65 225 5.0 7.0 0.00 0.00 0.00 66 1005.1
20260504141305 66 254 3.0 6.0 0.00 0.00 0.00 63 1005.8
20260504140805 66 226 3.0 5.0 0.00 0.00 0.00 63 1005.8
20260504140304 66 247 2.0 5.0 0.00 0.00 0.00 62 1005.8
20260504130305 65 226 3.0 5.0 0.00 0.00 0.00 65 1006.1
20260504120305 61 238 2.0 2.0 0.00 0.00 0.00 71 1007.1
20260504100304 62 238 2.0 2.0 0.00 0.00 0.00 67 1006.8
20260504081804 62 268 1.0 2.0 0.00 0.00 0.00 67 1006.8
20260504081304 62 268 2.0 2.0 0.00 0.00 0.00 65 1006.8
20260504080804 61 268 2.0 2.0 0.00 0.00 0.00 67 1006.8
20260504080304 61 268 2.0 2.0 0.00 0.00 0.00 70 1007.1
20260504070304 62 357 2.0 2.0 0.00 0.00 0.00 67 1006.8